Flag for Qatar Weather past 2 weeks in Al Khor, Qatar

Now
70 °F

Sunny.


Feels Like: 70 °F
Forecast: 64 / 78 °F
Wind: 9 mph from South

Location: Doha International Airport

Current Time: Mar 1, 2015 at 10:06:27 AM

Latest Report: Mar 1, 2015 at 9:30 AM


Visibility: 10 mi

Pressure: 30.01 "Hg

Humidity: 57%

Dew point: 54 °F

Location of Al KhorLocation

Historic Weather in Al Khor — Graph

°F

Al Khor temperature yesterday

Maximum temperature yesterday: 73 °F (at 10:30 AM)
Minimum temperature yesterday: 63 °F (at 12:00 AM)
Average temperature yesterday: 68 °F

Past Weeks' High & Low Weather Summary

 TemperatureHumidityPressure
High91 °F (Feb 20, 2:00 PM)94% (Feb 20, 12:00 AM)30.21 "Hg (Feb 20, 12:00 AM)
Low55 °F (Feb 24, 3:00 AM)17% (Feb 20, 2:00 PM)29.56 "Hg (Feb 20, 3:30 PM)
Average69 °F60%29.97 "Hg
* Reported Feb 14 9:00 AM — Mar 1 9:00 AM, Al Khor, Weather by CustomWeather, © 2015

Note: Actual official high and low records may vary slightly from our data, if they occured in-between our weather recording intervals... More about our weather records

Advertising

Al Khor weather history for previous 24 hours

 ConditionsComfort  
Time TempWeatherWind HumidityBarometerVisibility
9:00 AM
Sun, Mar 1
68 °FPassing clouds.7 mph60%30.04 "HgN/A
8:30 AM68 °FPassing clouds.5 mph69%30.04 "HgN/A
8:00 AM66 °FPassing clouds.8 mph68%30.01 "HgN/A
7:30 AM64 °FPassing clouds.7 mph73%30.01 "HgN/A
7:00 AM63 °FPassing clouds.6 mph77%30.01 "HgN/A
6:00 AM61 °FSunny.5 mph77%29.98 "Hg10 mi
5:00 AM61 °FClear.5 mph77%29.98 "Hg10 mi
4:00 AM61 °FPassing clouds.5 mph83%29.95 "HgN/A
3:02 AM61 °FClear.3 mph77%29.95 "Hg10 mi
2:00 AM63 °FClear.3 mph73%29.98 "Hg10 mi
1:00 AM64 °FClear.2 mph68%29.98 "Hg10 mi
12:00 AM64 °FClear.1 mph68%30.01 "Hg10 mi
11:00 PM
Sat, Feb 28
66 °FClear.2 mph64%30.01 "Hg10 mi
10:00 PM66 °FPassing clouds.3 mph64%30.04 "HgN/A
9:00 PM68 °FPassing clouds.3 mph53%30.04 "HgN/A
8:00 PM68 °FClear.3 mph56%30.04 "Hg10 mi
7:00 PM68 °FClear.3 mph60%30.04 "Hg10 mi
6:30 PM68 °FClear.5 mph60%30.04 "Hg10 mi
6:00 PM70 °FClear.5 mph57%30.01 "Hg10 mi
5:30 PM70 °FSunny.6 mph57%30.01 "Hg10 mi
5:00 PM72 °FSunny.9 mph53%30.01 "Hg10 mi
4:30 PM72 °FSunny.9 mph47%30.01 "Hg10 mi
4:00 PM72 °FSunny.10 mph44%30.01 "Hg10 mi
3:30 PM72 °FSunny.9 mph47%30.01 "Hg10 mi
3:00 PM73 °FPassing clouds.12 mph47%30.01 "HgN/A
2:00 PM73 °FPassing clouds.10 mph47%30.01 "HgN/A
1:00 PM73 °FPassing clouds.7 mph41%30.04 "HgN/A
12:00 PM73 °FPassing clouds.9 mph41%30.07 "HgN/A
11:00 AM73 °FPassing clouds.7 mph41%30.07 "HgN/A
10:30 AM73 °FPassing clouds.6 mph44%30.09 "HgN/A
10:00 AM72 °FPassing clouds.3 mph53%30.09 "HgN/A
Weather by CustomWeather, © 2015

See weather overviewHow to use our weather pages